VIR511K KJFK-EGLL

Flight info

Callsign VIR511K
Flight time N/A
Altitude 37000
Route GREKI DCT JUDDS DCT MARTN DCT EBONY N567B TUDEP/M083F370 NATT BEXET/N0480F370 DCT BOFUM Q37 MALUD Q38 NUGRA
Aircraft A346/H-SDE2E3FGHIJ3J4J5M1RWXY/LB1D1

Departure

Time N/A
Airport John F. Kennedy International Airport (KJFK)

Arrival

Time 2026-05-08 04:43
Airport London Heathrow Airport (EGLL)
Time Latitude Longitude Altitude Speed Heading
2026-05-08 04:23 52.56862 -1.82485 30203 ft 467 kts 149°
2026-05-08 04:23 52.54097 -1.79644 29372 ft 468 kts 149°
2026-05-08 04:23 52.50872 -1.76337 28364 ft 470 kts 149°
2026-05-08 04:23 52.48085 -1.73485 27601 ft 469 kts 149°
2026-05-08 04:24 52.45330 -1.70668 27114 ft 463 kts 149°
2026-05-08 04:24 52.42606 -1.67886 26544 ft 458 kts 149°
2026-05-08 04:24 52.39898 -1.65124 25955 ft 455 kts 149°
2026-05-08 04:24 52.37211 -1.62387 25408 ft 452 kts 149°
2026-05-08 04:25 52.34539 -1.59670 24841 ft 448 kts 149°
2026-05-08 04:25 52.31897 -1.56986 24503 ft 440 kts 149°
2026-05-08 04:25 52.29338 -1.54388 24343 ft 428 kts 149°
2026-05-08 04:25 52.26815 -1.51833 24166 ft 417 kts 149°
2026-05-08 04:26 52.24408 -1.49400 23966 ft 406 kts 149°
2026-05-08 04:26 52.22059 -1.46898 23799 ft 397 kts 146°
2026-05-08 04:26 52.19893 -1.44191 23609 ft 387 kts 141°
2026-05-08 04:26 52.17860 -1.41368 23413 ft 378 kts 141°
2026-05-08 04:27 52.15890 -1.38602 23211 ft 368 kts 140°
2026-05-08 04:27 52.13957 -1.35887 23022 ft 359 kts 141°
2026-05-08 04:27 52.12087 -1.33269 22662 ft 349 kts 141°
2026-05-08 04:27 52.10270 -1.30731 22529 ft 335 kts 141°
2026-05-08 04:28 52.08506 -1.28274 22283 ft 329 kts 141°
2026-05-08 04:28 52.06779 -1.25874 22039 ft 322 kts 141°
2026-05-08 04:28 52.05085 -1.23521 21794 ft 316 kts 141°
2026-05-08 04:28 52.03421 -1.21214 21546 ft 312 kts 141°
2026-05-08 04:29 52.01677 -1.18807 21327 ft 345 kts 141°
2026-05-08 04:29 51.99750 -1.16152 21120 ft 378 kts 141°
2026-05-08 04:29 51.97650 -1.13257 20874 ft 408 kts 141°
2026-05-08 04:29 51.95421 -1.10182 20254 ft 430 kts 141°
2026-05-08 04:30 51.93116 -1.06999 19819 ft 424 kts 141°
2026-05-08 04:30 51.90907 -1.03948 19092 ft 408 kts 141°
2026-05-08 04:30 51.88785 -1.01026 18235 ft 399 kts 141°
2026-05-08 04:30 51.86650 -0.98093 17257 ft 389 kts 141°
2026-05-08 04:31 51.84847 -0.94924 16289 ft 385 kts 123°
2026-05-08 04:31 51.83616 -0.91104 15419 ft 379 kts 117°
2026-05-08 04:31 51.82477 -0.87252 14533 ft 373 kts 116°
2026-05-08 04:31 51.81359 -0.83484 13669 ft 367 kts 116°
2026-05-08 04:32 51.80237 -0.79749 12816 ft 371 kts 117°
2026-05-08 04:32 51.79078 -0.75934 11905 ft 380 kts 117°
2026-05-08 04:32 51.77889 -0.72051 10994 ft 387 kts 117°
2026-05-08 04:32 51.76686 -0.68138 10477 ft 384 kts 117°
2026-05-08 04:33 51.75474 -0.64208 9849 ft 383 kts 117°
2026-05-08 04:33 51.74284 -0.60356 9256 ft 379 kts 117°
2026-05-08 04:33 51.73107 -0.56612 8774 ft 373 kts 120°
2026-05-08 04:33 51.71417 -0.53452 8128 ft 370 kts 144°
2026-05-08 04:34 51.69115 -0.51675 7629 ft 363 kts 166°
2026-05-08 04:34 51.66583 -0.51465 7116 ft 358 kts 188°
2026-05-08 04:34 51.64225 -0.52683 6639 ft 353 kts 202°
2026-05-08 04:34 51.62038 -0.54384 5995 ft 353 kts 215°
2026-05-08 04:35 51.60346 -0.57268 5478 ft 350 kts 237°
2026-05-08 04:35 51.59461 -0.60954 4951 ft 347 kts 259°
2026-05-08 04:35 51.59403 -0.64974 4408 ft 345 kts 272°
2026-05-08 04:35 51.59533 -0.69002 3810 ft 344 kts 272°
2026-05-08 04:36 51.59665 -0.72870 3260 ft 343 kts 272°
2026-05-08 04:36 51.59763 -0.76690 2842 ft 336 kts 268°
2026-05-08 04:36 51.59233 -0.80276 2500 ft 327 kts 244°
2026-05-08 04:36 51.57850 -0.83140 2486 ft 308 kts 218°
2026-05-08 04:37 51.55928 -0.84688 2471 ft 289 kts 192°
2026-05-08 04:37 51.53990 -0.84670 2480 ft 272 kts 165°
2026-05-08 04:37 51.52388 -0.83279 2477 ft 256 kts 135°
2026-05-08 04:37 51.51476 -0.80896 2476 ft 240 kts 105°
2026-05-08 04:38 51.51075 -0.78401 2495 ft 227 kts 114°
2026-05-08 04:38 51.50124 -0.76519 2499 ft 210 kts 148°
2026-05-08 04:38 51.48792 -0.75875 2537 ft 191 kts 169°
2026-05-08 04:38 51.47668 -0.74956 2500 ft 181 kts 130°
2026-05-08 04:39 51.47245 -0.73131 2491 ft 173 kts 91°
2026-05-08 04:39 51.47361 -0.71201 2516 ft 173 kts 83°
2026-05-08 04:39 51.47465 -0.69935 2520 ft 172 kts 84°
2026-05-08 04:39 51.47622 -0.67350 2478 ft 173 kts 86°
2026-05-08 04:40 51.47676 -0.66078 2334 ft 171 kts 88°
2026-05-08 04:40 51.47713 -0.64184 2092 ft 166 kts 90°
2026-05-08 04:40 51.47722 -0.62330 1862 ft 159 kts 91°
2026-05-08 04:40 51.47722 -0.60574 1643 ft 159 kts 91°
2026-05-08 04:41 51.47722 -0.58803 1439 ft 157 kts 90°
2026-05-08 04:41 51.47726 -0.57076 1213 ft 152 kts 90°
2026-05-08 04:41 51.47730 -0.55454 1010 ft 151 kts 90°
2026-05-08 04:41 51.47734 -0.53761 773 ft 147 kts 90°
2026-05-08 04:42 51.47739 -0.52100 573 ft 146 kts 89°
2026-05-08 04:42 51.47743 -0.50472 370 ft 145 kts 89°
2026-05-08 04:42 51.47744 -0.50165 332 ft 144 kts 89°
2026-05-08 04:42 51.47751 -0.48128 98 ft 136 kts 89°
2026-05-08 04:43 51.47755 -0.46963 100 ft 48 kts 90°
2026-05-08 04:43 51.47757 -0.46602 101 ft 35 kts 90°
2026-05-08 04:43 51.47759 -0.46211 98 ft 35 kts 89°
2026-05-08 04:43 51.47760 -0.45806 95 ft 35 kts 90°
2026-05-08 04:44 51.47721 -0.45497 97 ft 27 kts 147°
2026-05-08 04:44 51.47609 -0.45473 97 ft 15 kts 223°
2026-05-08 04:44 51.47594 -0.45670 98 ft 19 kts 268°
2026-05-08 04:44 51.47589 -0.45930 95 ft 23 kts 269°
2026-05-08 04:45 51.47592 -0.46219 95 ft 26 kts 271°
2026-05-08 04:45 51.47592 -0.46540 95 ft 28 kts 269°
2026-05-08 04:45 51.47588 -0.46826 97 ft 21 kts 260°
2026-05-08 04:45 51.47453 -0.46896 96 ft 23 kts 170°
2026-05-08 04:46 51.47281 -0.46869 98 ft 26 kts 178°
2026-05-08 04:46 51.47094 -0.46863 96 ft 23 kts 179°
2026-05-08 04:46 51.47039 -0.46821 98 ft 10 kts 97°
2026-05-08 04:46 51.47013 -0.46699 99 ft 13 kts 128°
2026-05-08 04:47 51.46947 -0.46616 98 ft 6 kts 146°
2026-05-08 04:47 51.46937 -0.46558 99 ft 8 kts 65°
2026-05-08 04:47 51.46951 -0.46504 96 ft 1 kts 60°
2026-05-08 04:47 51.46960 -0.46483 98 ft 0 kts 58°